Weather History for YCIN - October, 2012

Change the Weather History Date:

Saturday, October 6, 2012

  Actual Average Record
Temperature  
Mean Temperature 86 °F -  
Max Temperature 107 °F - - ()
Min Temperature 65 °F - - ()
Cooling Degree Days 21    
Growing Degree Days 36 (Base 50)    
Moisture  
Dew Point 55 °F    
Average Humidity 42    
Maximum Humidity 78    
Minimum Humidity 4    
Precipitation  
Precipitation 0.00 in - - ()
Sea Level Pressure  
Sea Level Pressure 29.86 in    
Wind  
Wind Speed 5 mph ()    
Max Wind Speed 13 mph    
Max Gust Speed -    
T = Trace of Precipitation, MM = Missing Value Source: Averaged Metar Reports

Daily Weather History Graph

Daily Weather History Graph

Search for Another Location

Airport or City:

Trip Planner

Search our weather history database for the weather conditions in past years. The results will help you decide how hot, cold, wet, or windy it might be!

Date:

Astronomy

Oct. 06, 2012 Rise Set
Actual Time 5:22 AM AWST 5:43 PM AWST
Civil Twilight 5:01 AM AWST 6:04 PM AWST
Nautical Twilight 4:35 AM AWST 6:30 PM AWST
Astronomical Twilight 4:09 AM AWST 6:55 PM AWST
Moon 10:49 PM AWST (10/6) 9:26 AM AWST (10/6)
Length of Visible Light 13h 03m
Length of Day
12h 20m
Waning Gibbous, 70% of the Moon is Illuminated
Oct 6
Waning Gibbous
Oct 8
Last Quarter
Oct 15
New
Oct 22
First Quarter
Oct 30
Full

Hourly Weather History & Observations

Time (AWST) Temp. Heat Index Dew Point Humidity Pressure Visibility Wind Dir Wind Speed Gust Speed Precip Events Conditions
12:00 AM 76 °F - 60 °F 47% 29.88 in - SSW 6.9 mph - -  
12:00 AM 75.2 °F - 59.0 °F 57% 29.89 in - SSW 6.9 mph - N/A   Unknown
1:00 AM 73.4 °F - 60.8 °F 65% 29.86 in - SSW 6.9 mph - N/A   Unknown
2:00 AM 71.6 °F - 59.0 °F 64% 29.86 in - SW 4.6 mph - N/A   Unknown
3:00 AM 70 °F - 59 °F 59% 29.84 in - SSW 5.8 mph - -  
3:00 AM 69.8 °F - 59.0 °F 68% 29.86 in - SSW 5.8 mph - N/A   Unknown
4:00 AM 69.8 °F - 57.2 °F 64% 29.86 in - SSW 4.6 mph - N/A   Unknown
5:00 AM 66.2 °F - 57.2 °F 73% 29.89 in - SSW 5.8 mph - N/A   Unknown
6:00 AM 66 °F - 58 °F 69% 29.91 in - Calm Calm - -  
6:00 AM 66.2 °F - 59.0 °F 78% 29.92 in - Calm Calm - N/A   Unknown
7:00 AM 73.4 °F - 62.6 °F 69% 29.92 in - Calm Calm - N/A   Unknown
8:00 AM 82.4 °F 81.7 °F 55.4 °F 39% 29.95 in - West 4.6 mph - N/A   Unknown
9:00 AM 88 °F - 54 °F 22% 29.93 in - West 4.6 mph - -  
9:00 AM 87.8 °F 86.1 °F 55.4 °F 33% 29.92 in - West 4.6 mph - N/A   Unknown
10:00 AM 95.0 °F - 50.0 °F 22% 29.92 in - WSW 5.8 mph - N/A   Unknown
11:00 AM 98.6 °F - 50.0 °F 19% 29.89 in - SW 6.9 mph - N/A   Unknown
12:00 PM 102 °F - 44 °F 7% 29.83 in - SSW 8.1 mph - -  
12:00 PM 102.2 °F - 44.6 °F 14% 29.83 in - SSW 8.1 mph - N/A   Unknown
1:00 PM 104.0 °F - 35.6 °F 9% 29.80 in - SW 6.9 mph - N/A   Unknown
2:00 PM 104.0 °F - 33.8 °F 9% 29.77 in - ESE 6.9 mph - N/A   Unknown
3:00 PM 106 °F - 35 °F 4% 29.76 in - South 5.8 mph - -  
3:00 PM 105.8 °F - 35.6 °F 9% 29.77 in - South 5.8 mph - N/A   Unknown
4:00 PM 98.6 °F 97.6 °F 57.2 °F 25% 29.77 in - NNW 12.7 mph - N/A   Unknown
5:00 PM 91.4 °F 91.4 °F 60.8 °F 36% 29.80 in - NNW 9.2 mph - N/A   Unknown
6:00 PM 87 °F - 63 °F 34% 29.81 in - North 6.9 mph - -  
6:00 PM 87.8 °F 88.5 °F 62.6 °F 43% 29.80 in - North 6.9 mph - N/A   Unknown
7:00 PM 82.4 °F 83.9 °F 64.4 °F 54% 29.83 in - NNW 5.8 mph - N/A   Unknown
8:00 PM 80.6 °F 82.3 °F 64.4 °F 58% 29.86 in - WNW 4.6 mph - N/A   Unknown
9:00 PM 80 °F - 60 °F 41% 29.86 in - West 5.8 mph - -  
9:00 PM 78.8 °F - 60.8 °F 54% 29.86 in - West 5.8 mph - N/A   Unknown
10:00 PM 78.8 °F - 57.2 °F 47% 29.86 in - West 6.9 mph - N/A   Unknown
11:00 PM 77.0 °F - 57.2 °F 50% 29.86 in - West 5.8 mph - N/A   Unknown